Hourly Weather Roundup
Issued by NWS Central Illinois

Home | Current Version | Previous Version | Text Only | Print | Product List | Glossary On
Versions: 1 2 3 4 5 6 7 8 9 10 11 12 13 14 15 16 17 18 19 20 21 22 23 24 25 26 27 28 29 30 31 32 33 34 35 36 37 38 39 40 41 42 43 44 45 46 47 48 49 50
000
NZUS43 KILX 282110
HWRILX

Area Weather Roundup
National Weather Service Lincoln IL
400 PM CDT SUN MAY 28 2017

NOTE:  "FAIR" indicates few or no clouds below 12,000 feet, with
       no sigificant weather and/or obstructions to visibility.


CITY           SKY/WX    TMP DP  RH WIND       PRES   REMARKS
Bloomington    MOSUNNY   77  55  46 NW16      29.80S
Champaign      PTSUNNY   78  57  48 NW17G26   29.77R
Danville       CLOUDY    76  64  65 NW15      29.73R
Decatur        CLOUDY    78  56  46 W13       29.80R
Effingham      PTSUNNY   76  67  72 SW12      29.82S
Flora          CLOUDY    76  66  70 W8        29.83F
Galesburg      MOSUNNY   78  53  42 W16G25    29.79S
Jacksonville   MOSUNNY   78  50  37 NW14G22   29.83S
Lacon          MOSUNNY   76  52  42 W10G16    29.76F
Lawrenceville  PTSUNNY   77  64  64 W16       29.81R
Litchfield     SUNNY     77  58  51 NW16G24   29.85R
$$


CITY           SKY/WX    TMP DP  RH WIND       PRES   REMARKS
Lincoln        MOSUNNY   80  56  44 NW7       29.80R HX  80
Macomb         MOSUNNY   77  51  40 W16G23    29.83S
Mattoon        PTSUNNY   77  61  57 W15G24    29.77S
Mt Carmel AP   LGT RAIN  73  63  72 W15       29.81S
Olney-Noble AP CLOUDY    74  69  83 W10       29.83S
Paris AP       CLOUDY    79  65  62 W16       29.76S HX  81
Peoria         MOSUNNY   76  52  43 NW8       29.79S
Pontiac        SUNNY     76  56  48 NW14G24   29.78R
Rantoul        PTSUNNY   79  60  50 NW20G26   29.77R HX  80
Robinson       MOSUNNY   77  64  63 SW16G23   29.79S
Springfield    MOSUNNY   82  56  40 NW14G20   29.82R HX  82
Taylorville    PTSUNNY   78  56  47 NW14      29.82R
$$

...REGIONAL REPORTS...


CITY           SKY/WX    TMP DP  RH WIND       PRES   REMARKS
Chicago O`Hare MOSUNNY   77  53  43 NW13G22   29.72S
Kankakee       MOSUNNY   78  56  46 NW12G20   29.74R
Moline         PTSUNNY   79  55  43 NW17      29.77S
Mount Sterling MOSUNNY   77  52  42 NW14G22   29.83S
Mount Vernon     N/A     73  64  73 VRB5      29.85S
Pittsfield     MOSUNNY   79  54  42 W9        29.86R
Quincy         MOSUNNY   79  52  38 W12       29.83F
Rockford       PTSUNNY   75  54  47 W12       29.75F
$$


CITY           SKY/WX    TMP DP  RH WIND       PRES   REMARKS
Burlington     MOSUNNY   79  53  40 W13G21    29.80S
Cedar Rapids   MOSUNNY   76  49  38 NW22G31   29.79S
Des Moines     PTSUNNY   80  47  31 W15       29.81F
Kirksville     MOSUNNY   80  53  39 W20G26    29.87S HX  80
Ottumwa        SUNNY     78  46  32 NW17G25   29.81F
St Louis       MOSUNNY   81  60  48 W12G22    29.86R HX  82
$$


CITY           SKY/WX    TMP DP  RH WIND       PRES   REMARKS
Terre Haute    TSTM      72  64  76 NW7       29.77R
Evansville     PTSUNNY   77  63  61 SW13      29.83S
Indianapolis   CLOUDY    74  61  63 SW16      29.76R
Lafayette      PTSUNNY   77  61  57 W13       29.71S
Madison        PTSUNNY   73  55  53 VRB5      29.69F
Milwaukee      MOSUNNY   75  53  46 W13       29.71F
$$





USA.gov is the U.S. government's official web portal to all federal, state and local government web resources and services.